Retour au catalogue

COSMOS 397

ActifMilitaireUNKNOWN
NORAD 4964·PAYLOAD·🇷🇺 Russia

Lancé Feb 25, 1971 depuis Baikonur Cosmodrome

Loading…

Prochains Passages

TLE

Source: Space-Track
1 04964U 71015A   26229.37176506  .00000054  00000-0  61654-4 0  9998
2 04964  65.7257 344.5023 1029897 211.7308 141.7492 12.74964216676050

Suivez COSMOS 397 en temps réel avec AllMySat

Download on the App Store